When you browse on this site, cookies collect data to enhance your experience and personalize the content and advertising you see.
Visit our Privacy Policy to learn more. By continuing to use the site, you agree to this use of cookies and data.

Hourly Weather Nakhchivan

Today, 8 August, Saturday

Time Temperature Precipitation Wind Pressure Humidity
00:00 +26°C° 0 mm 3 mps 688 mmHg 38%
01:00 +26°C° 0 mm 2 mps 688 mmHg 40%
02:00 +25°C° 0 mm 2 mps 688 mmHg 42%
03:00 +24°C° 0 mm 2 mps 687 mmHg 43%
04:00 +24°C° 0 mm 2 mps 687 mmHg 43%
05:00 +24°C° 0 mm 2 mps 688 mmHg 43%
06:00 +24°C° 0 mm 2 mps 688 mmHg 43%
07:00 +25°C° 0 mm 2 mps 688 mmHg 39%
08:00 +27°C° 0 mm 2 mps 688 mmHg 35%
09:00 +28°C° 0 mm 2 mps 687 mmHg 30%
10:00 +29°C° 0 mm 2 mps 687 mmHg 27%
11:00 +30°C° 0 mm 2 mps 687 mmHg 24%
12:00 +31°C° 0 mm 2 mps 687 mmHg 21%
13:00 +32°C° 0 mm 2 mps 686 mmHg 19%
14:00 +34°C° 0 mm 2 mps 686 mmHg 17%
15:00 +35°C° 0 mm 2 mps 685 mmHg 15%
16:00 +35°C° 0 mm 3 mps 685 mmHg 16%
17:00 +34°C° 0 mm 3 mps 685 mmHg 16%
18:00 +34°C° 0 mm 4 mps 685 mmHg 16%
19:00 +33°C° 0 mm 4 mps 685 mmHg 19%
20:00 +32°C° 0 mm 4 mps 685 mmHg 22%
21:00 +29°C° 0 mm 4 mps 685 mmHg 25%
22:00 +28°C° 0 mm 3 mps 685 mmHg 27%
23:00 +27°C° 0 mm 3 mps 685 mmHg 29%

Tomorrow, 9 August, Sunday

Time Temperature Precipitation Wind Pressure Humidity
00:00 +26°C° 0 mm 2 mps 685 mmHg 31%
01:00 +26°C° 0 mm 2 mps 684 mmHg 33%
02:00 +25°C° 0 mm 2 mps 684 mmHg 35%
03:00 +25°C° 0 mm 1 mps 684 mmHg 37%
04:00 +25°C° 0 mm 1 mps 684 mmHg 37%
05:00 +25°C° 0 mm 1 mps 684 mmHg 37%
06:00 +25°C° 0 mm 1 mps 684 mmHg 37%
07:00 +26°C° 0 mm 1 mps 684 mmHg 33%
08:00 +28°C° 0 mm 1 mps 684 mmHg 29%
09:00 +29°C° 0 mm 1 mps 684 mmHg 25%
10:00 +30°C° 0 mm 1 mps 684 mmHg 22%
11:00 +32°C° 0 mm 1 mps 684 mmHg 20%
12:00 +33°C° 0 mm 1 mps 684 mmHg 17%
13:00 +34°C° 0 mm 1 mps 684 mmHg 16%
14:00 +35°C° 0 mm 1 mps 683 mmHg 15%
15:00 +36°C° 0 mm 1 mps 683 mmHg 14%
16:00 +36°C° 0 mm 1 mps 683 mmHg 14%
17:00 +36°C° 0 mm 1 mps 683 mmHg 14%
18:00 +37°C° 0 mm 2 mps 683 mmHg 14%
19:00 +35°C° 0 mm 2 mps 683 mmHg 17%
20:00 +32°C° 0 mm 2 mps 683 mmHg 20%
21:00 +31°C° 0 mm 2 mps 683 mmHg 23%
22:00 +30°C° 0 mm 2 mps 683 mmHg 24%
23:00 +29°C° 0 mm 2 mps 683 mmHg 25%

Day after tomorrow, 10 August, Monday

Time Temperature Precipitation Wind Pressure Humidity
00:00 +28°C° 0 mm 2 mps 683 mmHg 26%
01:00 +28°C° 0 mm 2 mps 683 mmHg 27%
02:00 +27°C° 0 mm 2 mps 683 mmHg 28%
03:00 +26°C° 0 mm 2 mps 682 mmHg 29%
04:00 +26°C° 0 mm 1 mps 683 mmHg 30%
05:00 +26°C° 0 mm 1 mps 683 mmHg 30%
06:00 +26°C° 0 mm 1 mps 683 mmHg 31%
07:00 +28°C° 0 mm 1 mps 683 mmHg 28%
08:00 +30°C° 0 mm 1 mps 683 mmHg 24%
09:00 +31°C° 0 mm 1 mps 684 mmHg 21%
10:00 +34°C° 0 mm 2 mps 683 mmHg 19%
11:00 +35°C° 0 mm 2 mps 683 mmHg 18%
12:00 +37°C° 0 mm 2 mps 683 mmHg 16%
13:00 +38°C° 0 mm 3 mps 683 mmHg 15%
14:00 +40°C° 0 mm 4 mps 683 mmHg 14%
15:00 +41°C° 0 mm 5 mps 683 mmHg 13%
16:00 +40°C° 0 mm 5 mps 682 mmHg 15%
17:00 +40°C° 0 mm 5 mps 682 mmHg 16%
18:00 +39°C° 0 mm 5 mps 682 mmHg 18%
19:00 +36°C° 0 mm 4 mps 682 mmHg 23%
20:00 +34°C° 0 mm 4 mps 683 mmHg 28%
21:00 +31°C° 0 mm 3 mps 683 mmHg 33%
22:00 +30°C° 0 mm 3 mps 683 mmHg 35%
23:00 +29°C° 0 mm 3 mps 683 mmHg 37%

11 August, Tuesday

Time Temperature Precipitation Wind Pressure Humidity
00:00 +28°C° 0 mm 2 mps 683 mmHg 39%
01:00 +27°C° 0 mm 2 mps 683 mmHg 41%
02:00 +27°C° 0 mm 1 mps 683 mmHg 43%
03:00 +26°C° 0 mm 1 mps 683 mmHg 45%
04:00 +26°C° 0 mm 1 mps 683 mmHg 46%
05:00 +26°C° 0 mm 1 mps 683 mmHg 47%
06:00 +26°C° 0 mm 1 mps 684 mmHg 47%
07:00 +27°C° 0 mm 1 mps 684 mmHg 44%
08:00 +28°C° 0 mm 1 mps 684 mmHg 41%
09:00 +29°C° 0 mm 2 mps 684 mmHg 38%
10:00 +30°C° 0 mm 2 mps 684 mmHg 35%
11:00 +32°C° 0 mm 2 mps 684 mmHg 32%
12:00 +33°C° 0 mm 1 mps 684 mmHg 28%
13:00 +34°C° 0 mm 1 mps 683 mmHg 26%
14:00 +35°C° 0 mm 1 mps 683 mmHg 24%
15:00 +37°C° 0 mm 2 mps 683 mmHg 21%
16:00 +37°C° 0 mm 2 mps 683 mmHg 21%
17:00 +37°C° 0 mm 3 mps 683 mmHg 21%
18:00 +37°C° 0 mm 3 mps 683 mmHg 21%
19:00 +35°C° 0 mm 3 mps 683 mmHg 27%
20:00 +33°C° 0 mm 4 mps 684 mmHg 33%
21:00 +30°C° 0 mm 4 mps 684 mmHg 38%
22:00 +29°C° 0 mm 3 mps 684 mmHg 39%
23:00 +28°C° 0 mm 2 mps 684 mmHg 40%

12 August, Wednesday

Time Temperature Precipitation Wind Pressure Humidity
00:00 +27°C° 0 mm 2 mps 684 mmHg 41%
01:00 +27°C° 0 mm 2 mps 684 mmHg 42%
02:00 +26°C° 0 mm 2 mps 683 mmHg 43%
03:00 +26°C° 0 mm 1 mps 683 mmHg 45%
04:00 +25°C° 0 mm 1 mps 684 mmHg 45%
05:00 +25°C° 0 mm 1 mps 684 mmHg 45%
06:00 +25°C° 0 mm 1 mps 684 mmHg 45%
07:00 +26°C° 0 mm 1 mps 684 mmHg 42%
08:00 +27°C° 0 mm 1 mps 684 mmHg 39%
09:00 +29°C° 0 mm 2 mps 684 mmHg 36%
10:00 +30°C° 0 mm 2 mps 684 mmHg 33%
11:00 +31°C° 0 mm 2 mps 684 mmHg 30%
12:00 +34°C° 0 mm 2 mps 684 mmHg 27%
13:00 +35°C° 0 mm 2 mps 684 mmHg 25%
14:00 +36°C° 0 mm 3 mps 683 mmHg 23%
15:00 +37°C° 0 mm 3 mps 683 mmHg 21%
16:00 +36°C° 0 mm 4 mps 683 mmHg 22%
17:00 +36°C° 0 mm 4 mps 683 mmHg 23%
18:00 +35°C° 0 mm 5 mps 683 mmHg 24%
19:00 +34°C° 0 mm 5 mps 683 mmHg 26%
20:00 +32°C° 0 mm 4 mps 683 mmHg 28%
21:00 +29°C° 0 mm 4 mps 683 mmHg 31%
22:00 +28°C° 0 mm 4 mps 683 mmHg 32%
23:00 +28°C° 0 mm 3 mps 683 mmHg 33%

13 August, Thursday

Time Temperature Precipitation Wind Pressure Humidity
00:00 +27°C° 0 mm 2 mps 683 mmHg 35%
01:00 +26°C° 0 mm 2 mps 683 mmHg 37%
02:00 +25°C° 0 mm 2 mps 683 mmHg 39%
03:00 +25°C° 0 mm 1 mps 682 mmHg 41%
04:00 +25°C° 0 mm 1 mps 683 mmHg 41%
05:00 +25°C° 0 mm 1 mps 683 mmHg 41%
06:00 +25°C° 0 mm 1 mps 683 mmHg 41%
07:00 +26°C° 0 mm 1 mps 683 mmHg 37%
08:00 +27°C° 0 mm 1 mps 683 mmHg 34%
09:00 +28°C° 0 mm 2 mps 683 mmHg 30%
10:00 +30°C° 0 mm 2 mps 683 mmHg 28%
11:00 +31°C° 0 mm 2 mps 683 mmHg 25%
12:00 +34°C° 0 mm 2 mps 682 mmHg 23%
13:00 +35°C° 0 mm 2 mps 682 mmHg 21%
14:00 +36°C° 0 mm 2 mps 682 mmHg 20%
15:00 +37°C° 0 mm 3 mps 682 mmHg 19%
16:00 +37°C° 0 mm 3 mps 681 mmHg 19%
17:00 +37°C° 0 mm 3 mps 681 mmHg 20%
18:00 +36°C° 0 mm 4 mps 681 mmHg 20%
19:00 +35°C° 0 mm 3 mps 682 mmHg 22%
20:00 +33°C° 0 mm 3 mps 682 mmHg 24%
21:00 +31°C° 0 mm 3 mps 683 mmHg 26%
22:00 +30°C° 0 mm 3 mps 683 mmHg 30%
23:00 +29°C° 0 mm 3 mps 683 mmHg 34%
Show more